Regional Weather Roundup
Issued by NWS Charleston, SC

Current Version | Previous Version | Graphics & Text | Print | Product List | Glossary On
Versions: 1 2 3 4 5 6 7 8 9 10 11 12 13 14 15 16 17 18 19 20 21 22 23 24 25 26 27 28 29 30 31 32 33 34 35 36 37 38 39 40 41 42 43 44 45 46 47 48 49 50
674
ASUS42 KCHS 241427
RWRCHS

REGIONAL WEATHER ROUNDUP
NATIONAL WEATHER SERVICE CHARLESTON SC
900 AM EST TUE JAN 24 2017

NOTE: "FAIR" INDICATES FEW OR NO CLOUDS BELOW 12,000 FEET WITH NO
SIGNIFICANT WEATHER AND/OR OBSTRUCTIONS TO VISIBILITY.

NOT ALL STATIONS ARE QUALITY CONTROLLED. USE DATA WITH CAUTION...
ESPECIALLY DEWPOINT OBSERVATIONS.

SCZ027-030-031-034>040-042>050-241500-
...SOUTHEAST SOUTH CAROLINA...

CITY           SKY/WX    TMP DP  RH WIND       PRES   REMARKS
N CHARLESTON   SUNNY     52  43  71 NW13      29.72R
WATERFRONT PRK   N/A     51  46  83 W8        29.70R
MOUNT PLEASANT FAIR      54  45  71 NW8G16    29.72R
JOHNS ISLAND   FAIR      54  45  71 W14G22    29.73R
PINOPOLIS        N/A     50  46  87 W15       29.62R
MONCKS CORNER  FAIR      52  43  71 W3        29.72R
SUMMERVILLE    FAIR      52  45  76 W7        29.74R
BEAUFORT MCAS  SUNNY     52  44  74 W14G22    29.75R
BEAUFORT ARPT  FAIR      52  45  76 W17       29.75R
HILTON HEAD IS SUNNY     52  45  76 W14G23    29.75R
WALTERBORO     MOSUNNY   50  43  76 W8G16     29.76R
ALLENDALE      FAIR      52  43  71 VRB7G13   29.75R

...SOUTHERN MIDLANDS AND PEE DEE...

CITY           SKY/WX    TMP DP  RH WIND       PRES   REMARKS
GEORGETOWN     FAIR      52  46  82 W9        29.70R
KINGSTREE      FAIR      52  43  71 W9        29.70R
ORANGEBURG     MOSUNNY   50  42  74 W12       29.72R
BARNWELL       FAIR      52  45  76 W10       29.75R
AIKEN          FAIR      48  41  76 W10       29.78R
MANNING        FAIR      50  34  53 W5        29.71R
COLUMBIA       SUNNY     52  42  69 W13       29.71R
SUMTER         SUNNY     50  44  80 W14       29.68R
FLORENCE       SUNNY     50  46  86 W10       29.68R
MYRTLE BEACH   MOSUNNY   48  43  81 NW6       29.69R
N MYRTLE BEACH CLOUDY    48  45  89 W6        29.66R

$$

GAZ063-065-086>088-099>101-113>116-118-119-134>141-150-241500-
...SOUTHEAST GEORGIA...

CITY           SKY/WX    TMP DP  RH WIND       PRES   REMARKS
SAVANNAH ARPT  SUNNY     53  43  68 W13       29.77R
HUNTER AAF     SUNNY     53  48  84 W13G23    29.74R
FORT STEWART   SUNNY     53  44  73 W13G22    29.76R
STATESBORO     SUNNY     54  47  77 W13G18    29.79R
SYLVANIA       SUNNY    N/A N/A N/A NW12      29.77R
CLAXTON        FAIR     N/A N/A N/A W10G23    29.80R

...CSRA...CENTRAL AND FAR SOUTHEAST GEORGIA...

CITY           SKY/WX    TMP DP  RH WIND       PRES   REMARKS
THOMSON        SUNNY     52  45  78 NW9G17    29.81R
AUGUSTA-BUSH   SUNNY     53  42  66 NW8       29.75R
AUGUSTA-DANIEL SUNNY     50  40  68 W9        29.76R
SWAINSBORO     FAIR      50  45  81 MISG      29.81R
VIDALIA        SUNNY     52  48  87 W8G17     29.82R
EASTMAN        FAIR      52  39  59 NW9       29.87R
HAZLEHURST     FAIR      54  49  83 NW5       29.83R
ALMA           MOSUNNY   52  47  83 W8        29.83R
WAYCROSS       SUNNY     56  52  85 NW13      29.84R
JESUP          FAIR      55  45  67 NW9G18    29.82R
BAXLEY         FAIR      54  50  87 W9G17     29.83R
BRUNSWICK      SUNNY     55  50  82 W15G24    29.82R
SAINT SIMONS   SUNNY     54  48  80 W13       29.80R

$$

SCZ027-028-034-036>038-045-046-048>050-GAZ119-141-241500-
...LAKE AND SUPPLEMENTAL COASTAL OBSERVATIONS...

STATION/POSITION TIME  TEMP    WIND        PRES    WAVE   SWELL
                       AIR SEA DIR/SP/G            HT/PER HT/PER/DIR
                 (UTC) (F)     (DEG/KT/KT) (MB)    (FT/S) (FT/S/D)
WINYAH BAY       1330   51     280/  9     1004.0R
LAKE MURRAY      1420   51     280/ 12/ 15 1006.1
ACE BASIN NERRS  1345   51     270/  4     1007.0R
FORT PULASKI     1400   52 58  310/ 19/ 23 1007.8
SAPELO ISLAND    1400   54     280/ 13     1008.0

$$

ANZ835-935-AMZ111-154-330-350-352-354-370-450-454-472-241500-
...C-MAN AND BUOY OBSERVATIONS...

STATION/POSITION TIME  TEMP    WIND        PRES    WAVE   SWELL
                       AIR SEA DIR/SP/G            HT/PER HT/PER/DIR
                 (UTC) (F)     (DEG/KT/KT) (MB)    (FT/S) (FT/S/D)
BUOY 41004       1350   57 69  290/ 21/ 25 1004.7R   6/ 8   2/250/11
BUOY 41008       1350   55 59  280/ 21/ 25 1007.2R   4/ 4
FOLLY BEACH CMAN 1400   53     290/  9/ 12 1006.8R
CAPERS NEARSHORE 1408   53 56  300/ 17/ 23 1005.9R
FRIPP NEARSHORE  1408   53 58  310/ 17/ 21 1007.2R


STATION/POSITION TIME  TEMP    WIND        PRES    WAVE   SWELL
                       AIR SEA DIR/SP/G            HT/PER HT/PER/DIR
                 (UTC) (F)     (DEG/KT/KT) (MB)    (FT/S) (FT/S/D)
5E ST. MARYS GA  1400      62                N/A     3/ 3
FRYING PAN BUOY  1410   54 69  300/ 17/ 21 1004.3
BUOY 41025       1350   46 74  320/ 23/ 27  998.7    9/11   7/160/11
CAPE LOOKOUT NC  1400   45     300/ 19/ 24 1000.8R
BUOY 41002       1350   66 71  310/ 27/ 35  999.8R  15/11   8/280/11
BUOY 41010       NOT AVBL
ST AUGUSTINE FL  1400   56 62  290/ 12/ 18 1010.8R


$$




USA.gov is the U.S. government's official web portal to all federal, state and local government web resources and services.